• în România
  • Lista ţărilor
  • Pe 7 zile
  • Temperatura apei
  • Hartă satelitară
  • Meteo pe hartă
  • Widget-uri
  • user-avatar
    Intrare

    Meteo pe oră la Yandyganovo

    Astăzi, 15 Octombrie, Luni

    Timp Temperatura Precipitaţii Vânt Presiune Umiditate
    00:00 -2°C° 0 mm 2 m/s 756 mmHg 83%
    01:00 -2°C° 0 mm 2 m/s 756 mmHg 84%
    02:00 -2°C° 0 mm 2 m/s 756 mmHg 85%
    03:00 -2°C° 0 mm 2 m/s 756 mmHg 85%
    04:00 0°C° 0 mm 1 m/s 756 mmHg 85%
    05:00 0°C° 0 mm 1 m/s 756 mmHg 85%
    06:00 0°C° 0 mm 1 m/s 756 mmHg 84%
    07:00 0°C° 0 mm 1 m/s 756 mmHg 84%
    08:00 +1°C° 0 mm 1 m/s 756 mmHg 78%
    09:00 +2°C° 0 mm 1 m/s 756 mmHg 71%
    10:00 +3°C° 0 mm 1 m/s 756 mmHg 63%
    11:00 +4°C° 0 mm 1 m/s 756 mmHg 60%
    12:00 +4°C° 0 mm 1 m/s 757 mmHg 57%
    13:00 +5°C° 0 mm 1 m/s 757 mmHg 54%
    14:00 +5°C° 0 mm 1 m/s 757 mmHg 56%
    15:00 +5°C° 0 mm 1 m/s 757 mmHg 58%
    16:00 +5°C° 0 mm 1 m/s 757 mmHg 60%
    17:00 +4°C° 0 mm 1 m/s 757 mmHg 63%
    18:00 +2°C° 0 mm 0 m/s 757 mmHg 65%
    19:00 +2°C° 0 mm 0 m/s 757 mmHg 68%
    20:00 +3°C° 0 mm 1 m/s 757 mmHg 69%
    21:00 +3°C° 0 mm 1 m/s 757 mmHg 69%
    22:00 +3°C° 0 mm 1 m/s 757 mmHg 70%
    23:00 +2°C° 0.5 mm 2 m/s 757 mmHg 74%

    Mâine, 16 Octombrie, Marţi

    Timp Temperatura Precipitaţii Vânt Presiune Umiditate
    00:00 +1°C° 0.5 mm 2 m/s 757 mmHg 78%
    01:00 +1°C° 0.5 mm 2 m/s 757 mmHg 82%
    02:00 0°C° 0.3 mm 3 m/s 756 mmHg 85%
    03:00 0°C° 0.3 mm 3 m/s 756 mmHg 87%
    04:00 -1°C° 0.3 mm 4 m/s 756 mmHg 89%
    05:00 -1°C° 0.1 mm 4 m/s 756 mmHg 89%
    06:00 -1°C° 0.1 mm 4 m/s 755 mmHg 90%
    07:00 0°C° 0.1 mm 4 m/s 755 mmHg 90%
    08:00 0°C° 0 mm 4 m/s 755 mmHg 90%
    09:00 0°C° 0 mm 4 m/s 755 mmHg 90%
    10:00 0°C° 0 mm 4 m/s 755 mmHg 90%
    11:00 +1°C° 0 mm 4 m/s 755 mmHg 89%
    12:00 +1°C° 0 mm 4 m/s 755 mmHg 89%
    13:00 +3°C° 0 mm 4 m/s 755 mmHg 89%
    14:00 +3°C° 0 mm 4 m/s 755 mmHg 90%
    15:00 +3°C° 0 mm 4 m/s 755 mmHg 91%
    16:00 +3°C° 0 mm 4 m/s 755 mmHg 92%
    17:00 +4°C° 0 mm 3 m/s 754 mmHg 93%
    18:00 +4°C° 0 mm 3 m/s 754 mmHg 94%
    19:00 +4°C° 0 mm 3 m/s 754 mmHg 95%
    20:00 +4°C° 0 mm 3 m/s 754 mmHg 95%
    21:00 +4°C° 0 mm 3 m/s 753 mmHg 96%
    22:00 +4°C° 0 mm 3 m/s 753 mmHg 96%
    23:00 +4°C° 0 mm 3 m/s 753 mmHg 96%

    Poimâine, 17 Octombrie, Miercuri

    Timp Temperatura Precipitaţii Vânt Presiune Umiditate
    00:00 +4°C° 0 mm 3 m/s 752 mmHg 96%
    01:00 +4°C° 0 mm 3 m/s 752 mmHg 97%
    02:00 +4°C° 0 mm 3 m/s 751 mmHg 96%
    03:00 +4°C° 0 mm 3 m/s 751 mmHg 96%
    04:00 +4°C° 0 mm 4 m/s 750 mmHg 96%
    05:00 +4°C° 0 mm 4 m/s 750 mmHg 96%
    06:00 +4°C° 0 mm 4 m/s 749 mmHg 95%
    07:00 +5°C° 0 mm 4 m/s 748 mmHg 95%
    08:00 +5°C° 0 mm 4 m/s 748 mmHg 92%
    09:00 +6°C° 0 mm 5 m/s 748 mmHg 88%
    10:00 +7°C° 0 mm 5 m/s 747 mmHg 85%
    11:00 +7°C° 0 mm 5 m/s 747 mmHg 85%
    12:00 +7°C° 0 mm 5 m/s 747 mmHg 85%
    13:00 +7°C° 0 mm 5 m/s 747 mmHg 86%
    14:00 +7°C° 0.1 mm 6 m/s 748 mmHg 81%
    15:00 +5°C° 0.1 mm 6 m/s 748 mmHg 75%
    16:00 +5°C° 0.1 mm 7 m/s 749 mmHg 70%
    17:00 +5°C° 0 mm 6 m/s 749 mmHg 71%
    18:00 +4°C° 0 mm 6 m/s 750 mmHg 72%
    19:00 +3°C° 0 mm 6 m/s 750 mmHg 73%
    20:00 +3°C° 0 mm 6 m/s 751 mmHg 75%
    21:00 +3°C° 0 mm 6 m/s 751 mmHg 76%
    22:00 +2°C° 0 mm 6 m/s 751 mmHg 78%
    23:00 +2°C° 0 mm 6 m/s 752 mmHg 80%

    18 Octombrie, Joi

    Timp Temperatura Precipitaţii Vânt Presiune Umiditate
    00:00 +2°C° 0 mm 6 m/s 752 mmHg 82%
    01:00 +1°C° 0 mm 5 m/s 752 mmHg 84%
    02:00 +1°C° 0 mm 5 m/s 753 mmHg 85%
    03:00 +1°C° 0 mm 5 m/s 753 mmHg 86%
    04:00 +1°C° 0 mm 5 m/s 753 mmHg 88%
    05:00 +1°C° 0 mm 5 m/s 753 mmHg 88%
    06:00 +1°C° 0 mm 5 m/s 753 mmHg 89%
    07:00 +1°C° 0 mm 5 m/s 753 mmHg 90%
    08:00 +1°C° 0 mm 6 m/s 753 mmHg 86%
    09:00 +2°C° 0 mm 6 m/s 753 mmHg 83%
    10:00 +3°C° 0 mm 6 m/s 753 mmHg 80%
    11:00 +3°C° 0 mm 6 m/s 753 mmHg 78%
    12:00 +3°C° 0 mm 6 m/s 753 mmHg 76%
    13:00 +4°C° 0 mm 6 m/s 753 mmHg 73%
    14:00 +3°C° 0 mm 6 m/s 753 mmHg 74%
    15:00 +3°C° 0 mm 5 m/s 753 mmHg 75%
    16:00 +3°C° 0 mm 5 m/s 753 mmHg 76%
    17:00 +4°C° 0 mm 4 m/s 753 mmHg 78%
    18:00 +4°C° 0 mm 4 m/s 753 mmHg 80%
    19:00 +3°C° 0 mm 3 m/s 753 mmHg 82%
    20:00 +3°C° 0 mm 3 m/s 753 mmHg 83%
    21:00 +3°C° 0 mm 3 m/s 753 mmHg 85%
    22:00 +3°C° 0 mm 3 m/s 753 mmHg 87%
    23:00 +3°C° 0 mm 2 m/s 753 mmHg 89%

    19 Octombrie, Vineri

    Timp Temperatura Precipitaţii Vânt Presiune Umiditate
    00:00 +3°C° 0 mm 2 m/s 753 mmHg 91%
    01:00 +2°C° 0 mm 2 m/s 753 mmHg 92%
    02:00 +2°C° 0 mm 2 m/s 753 mmHg 93%
    03:00 +3°C° 0 mm 1 m/s 753 mmHg 93%
    04:00 +2°C° 0 mm 1 m/s 753 mmHg 93%
    05:00 +2°C° 0 mm 1 m/s 753 mmHg 93%
    06:00 +3°C° 0 mm 1 m/s 753 mmHg 92%
    07:00 +3°C° 0 mm 1 m/s 753 mmHg 92%
    08:00 +4°C° 0 mm 1 m/s 753 mmHg 89%
    09:00 +4°C° 0 mm 2 m/s 752 mmHg 86%
    10:00 +4°C° 0 mm 2 m/s 752 mmHg 83%
    11:00 +4°C° 0 mm 3 m/s 752 mmHg 83%
    12:00 +4°C° 0 mm 3 m/s 752 mmHg 83%
    13:00 +5°C° 0 mm 3 m/s 752 mmHg 83%
    14:00 +5°C° 0.1 mm 3 m/s 751 mmHg 85%
    15:00 +5°C° 0.1 mm 3 m/s 751 mmHg 88%
    16:00 +5°C° 0.1 mm 3 m/s 751 mmHg 90%
    17:00 +5°C° 0.1 mm 3 m/s 751 mmHg 92%
    18:00 +5°C° 0.1 mm 3 m/s 751 mmHg 93%
    19:00 +5°C° 0.1 mm 3 m/s 750 mmHg 95%
    20:00 +5°C° 0 mm 3 m/s 750 mmHg 95%
    21:00 +5°C° 0 mm 3 m/s 750 mmHg 94%
    22:00 +5°C° 0 mm 3 m/s 749 mmHg 94%
    23:00 +5°C° 0 mm 3 m/s 749 mmHg 95%

    20 Octombrie, Sâmbătă

    Timp Temperatura Precipitaţii Vânt Presiune Umiditate
    00:00 +5°C° 0 mm 3 m/s 749 mmHg 95%
    01:00 +5°C° 0 mm 3 m/s 749 mmHg 95%
    02:00 +5°C° 0 mm 4 m/s 749 mmHg 96%
    03:00 +5°C° 0 mm 4 m/s 749 mmHg 96%
    04:00 +5°C° 0 mm 4 m/s 749 mmHg 96%
    05:00 +5°C° 0 mm 4 m/s 749 mmHg 96%
    06:00 +5°C° 0 mm 4 m/s 749 mmHg 96%
    07:00 +5°C° 0 mm 4 m/s 749 mmHg 96%
    08:00 +5°C° 0.1 mm 4 m/s 749 mmHg 95%
    09:00 +6°C° 0.1 mm 4 m/s 749 mmHg 93%
    10:00 +6°C° 0.1 mm 4 m/s 749 mmHg 92%
    11:00 +6°C° 0.1 mm 4 m/s 749 mmHg 89%
    12:00 +7°C° 0.1 mm 4 m/s 750 mmHg 86%
    13:00 +7°C° 0.1 mm 4 m/s 750 mmHg 83%
    14:00 +7°C° 0 mm 4 m/s 750 mmHg 81%
    15:00 +8°C° 0 mm 3 m/s 750 mmHg 78%
    16:00 +8°C° 0 mm 3 m/s 750 mmHg 76%
    17:00 +7°C° 0 mm 3 m/s 750 mmHg 79%
    18:00 +7°C° 0 mm 3 m/s 750 mmHg 82%
    19:00 +5°C° 0 mm 3 m/s 750 mmHg 85%
    20:00 +4°C° 0 mm 3 m/s 750 mmHg 87%
    21:00 +4°C° 0 mm 3 m/s 751 mmHg 88%
    22:00 +3°C° 0 mm 3 m/s 751 mmHg 90%
    23:00 +3°C° 0 mm 3 m/s 751 mmHg 91%
    Arată mai mult